| time (UTC) | temp F | wind direction | speed knots | gust knots | rain 1hr in | rain 24hr in | rain mn in | humidity % | barometer mb |
| 20260902033006 | 83 | 109 | 1.7 | 0.0 | 0.00 | 0.00 | 0.00 | 58 | 1010.4 |
| 20260902031502 | 83 | 90 | 0.9 | 0.0 | 0.00 | 0.00 | 0.00 | 57 | 1010.3 |
| 20260902030105 | 83 | 128 | 0.9 | 0.0 | 0.00 | 0.00 | 0.00 | 55 | 1010.1 |
| 20260902024602 | 83 | 115 | 0.9 | 0.0 | 0.00 | 0.00 | 0.00 | 54 | 1010.2 |
| 20260902023006 | 83 | 116 | 0.0 | 0.0 | 0.00 | 0.00 | 0.00 | 53 | 1009.9 |
| 20260902021634 | 83 | 146 | 0.0 | 0.0 | 0.00 | 0.00 | 0.00 | 53 | 1009.7 |
| 20260902014616 | 83 | 121 | 0.0 | 0.0 | 0.00 | 0.00 | 0.00 | 53 | 1009.4 |
| 20260902013104 | 84 | 121 | 0.0 | 0.0 | 0.00 | 0.00 | 0.00 | 53 | 1009.3 |
| 20260902010003 | 86 | 121 | 0.0 | 0.0 | 0.00 | 0.00 | 0.00 | 49 | 1009.3 |
| 20260902004505 | 88 | 120 | 0.0 | 0.0 | 0.00 | 0.00 | 0.00 | 48 | 1009.2 |
| 20260902003007 | 90 | 120 | 0.9 | 0.0 | 0.00 | 0.00 | 0.00 | 45 | 1009.2 |
| 20260902001604 | 91 | 113 | 0.9 | 0.0 | 0.00 | 0.00 | 0.00 | 44 | 1009.1 |
| 20260902000105 | 91 | 128 | 0.9 | 0.0 | 0.00 | 0.00 | 0.00 | 43 | 1009.0 |
| 20260901234609 | 92 | 126 | 2.6 | 0.0 | 0.00 | 0.00 | 0.00 | 43 | 1009.1 |
| 20260901233007 | 93 | 151 | 1.7 | 0.0 | 0.00 | 0.00 | 0.00 | 41 | 1008.9 |
| 20260901231506 | 94 | 119 | 1.7 | 0.0 | 0.00 | 0.00 | 0.00 | 40 | 1008.8 |
| 20260901230003 | 95 | 115 | 1.7 | 0.0 | 0.00 | 0.00 | 0.00 | 38 | 1008.8 |
| 20260901224506 | 95 | 168 | 1.7 | 0.0 | 0.00 | 0.00 | 0.00 | 38 | 1008.7 |
| 20260901223111 | 95 | 172 | 2.6 | 0.0 | 0.00 | 0.00 | 0.00 | 37 | 1008.9 |
| 20260901221509 | 95 | 113 | 1.7 | 0.0 | 0.00 | 0.00 | 0.00 | 37 | 1008.7 |
| 20260901220007 | 94 | 176 | 3.5 | 0.0 | 0.00 | 0.00 | 0.00 | 37 | 1008.9 |
| 20260901214518 | 95 | 144 | 1.7 | 0.0 | 0.00 | 0.00 | 0.00 | 37 | 1008.7 |
| 20260901211502 | 94 | 94 | 1.7 | 0.0 | 0.00 | 0.00 | 0.00 | 38 | 1009.3 |
| 20260901210002 | 92 | 163 | 1.7 | 0.0 | 0.00 | 0.00 | 0.00 | 41 | 1009.6 |
| 20260901204504 | 94 | 268 | 1.7 | 0.0 | 0.00 | 0.00 | 0.00 | 39 | 1009.8 |
| 20260901203015 | 92 | 335 | 0.9 | 0.0 | 0.00 | 0.00 | 0.00 | 41 | 1010.0 |
| 20260901201503 | 94 | 119 | 2.6 | 0.0 | 0.00 | 0.00 | 0.00 | 39 | 1010.1 |
| 20260901200006 | 95 | 10 | 2.6 | 0.0 | 0.00 | 0.00 | 0.00 | 38 | 1010.2 |
| 20260901193106 | 94 | 80 | 1.7 | 0.0 | 0.00 | 0.00 | 0.00 | 39 | 1010.5 |
| 20260901191607 | 93 | 53 | 2.6 | 0.0 | 0.00 | 0.00 | 0.00 | 42 | 1010.8 |
| 20260901190008 | 93 | 202 | 2.6 | 0.0 | 0.00 | 0.00 | 0.00 | 40 | 1011.0 |
| 20260901183006 | 92 | 134 | 3.5 | 0.0 | 0.00 | 0.00 | 0.00 | 43 | 1011.4 |
| 20260901181604 | 91 | 92 | 2.6 | 0.0 | 0.00 | 0.00 | 0.00 | 44 | 1011.7 |
| 20260901174506 | 92 | 154 | 2.6 | 0.0 | 0.00 | 0.00 | 0.00 | 44 | 1012.1 |
| 20260901173005 | 90 | 158 | 2.6 | 0.0 | 0.00 | 0.00 | 0.00 | 46 | 1012.3 |
| 20260901171511 | 89 | 180 | 1.7 | 0.0 | 0.00 | 0.00 | 0.00 | 47 | 1012.5 |
| 20260901170006 | 89 | 168 | 2.6 | 0.0 | 0.00 | 0.00 | 0.00 | 46 | 1012.6 |
| 20260901164517 | 89 | 82 | 3.5 | 0.0 | 0.00 | 0.00 | 0.00 | 46 | 1012.4 |
| 20260901163004 | 89 | 121 | 2.6 | 0.0 | 0.00 | 0.00 | 0.00 | 45 | 1012.6 |
| 20260901161510 | 88 | 195 | 1.7 | 0.0 | 0.00 | 0.00 | 0.00 | 49 | 1012.8 |
| 20260901160002 | 87 | 217 | 2.6 | 0.0 | 0.00 | 0.00 | 0.00 | 50 | 1012.8 |
| 20260901154510 | 86 | 119 | 2.6 | 0.0 | 0.00 | 0.00 | 0.00 | 52 | 1012.7 |
| 20260901153006 | 85 | 159 | 1.7 | 0.0 | 0.00 | 0.00 | 0.00 | 55 | 1012.7 |
| 20260901150123 | 82 | 173 | 2.6 | 0.0 | 0.00 | 0.00 | 0.00 | 59 | 1012.8 |
| 20260901144603 | 82 | 130 | 1.7 | 0.0 | 0.00 | 0.00 | 0.00 | 63 | 1012.7 |
| 20260901143007 | 80 | 197 | 2.6 | 0.0 | 0.00 | 0.00 | 0.00 | 70 | 1012.6 |
| 20260901141505 | 79 | 198 | 3.5 | 0.0 | 0.00 | 0.00 | 0.00 | 72 | 1012.7 |
| 20260901140002 | 78 | 209 | 2.6 | 0.0 | 0.00 | 0.00 | 0.00 | 77 | 1012.7 |
| 20260901133109 | 75 | 180 | 2.6 | 0.0 | 0.00 | 0.00 | 0.00 | 86 | 1012.7 |
| 20260901131507 | 74 | 196 | 1.7 | 0.0 | 0.00 | 0.00 | 0.00 | 90 | 1012.8 |
| 20260901130005 | 73 | 205 | 1.7 | 0.0 | 0.00 | 0.00 | 0.00 | 92 | 1012.7 |
| 20260901124603 | 72 | 209 | 0.0 | 0.0 | 0.00 | 0.00 | 0.00 | 92 | 1012.6 |
| 20260901123008 | 72 | 209 | 0.0 | 0.0 | 0.00 | 0.00 | 0.00 | 91 | 1012.5 |
| 20260901121502 | 72 | 209 | 0.9 | 0.0 | 0.00 | 0.00 | 0.00 | 91 | 1012.2 |
| 20260901120121 | 72 | 151 | 0.9 | 0.0 | 0.00 | 0.00 | 0.00 | 91 | 1012.3 |
| 20260901114603 | 73 | 169 | 1.7 | 0.0 | 0.00 | 0.00 | 0.00 | 90 | 1012.1 |
| 20260901113007 | 73 | 205 | 2.6 | 0.0 | 0.00 | 0.00 | 0.00 | 90 | 1011.8 |
| 20260901110010 | 73 | 209 | 3.5 | 0.0 | 0.00 | 0.00 | 0.00 | 90 | 1011.5 |
| 20260901104512 | 73 | 199 | 2.6 | 0.0 | 0.00 | 0.00 | 0.00 | 89 | 1011.7 |
| 20260901103009 | 73 | 194 | 3.5 | 0.0 | 0.00 | 0.00 | 0.00 | 89 | 1011.7 |
| 20260901101608 | 74 | 180 | 3.5 | 0.0 | 0.00 | 0.00 | 0.00 | 88 | 1011.7 |
| 20260901100006 | 74 | 186 | 4.3 | 0.0 | 0.00 | 0.00 | 0.00 | 88 | 1011.8 |
| 20260901093001 | 74 | 175 | 4.3 | 0.0 | 0.00 | 0.00 | 0.00 | 87 | 1011.8 |
| 20260901084505 | 75 | 173 | 4.3 | 0.0 | 0.00 | 0.00 | 0.00 | 85 | 1012.0 |
| 20260901083102 | 75 | 187 | 3.5 | 0.0 | 0.00 | 0.00 | 0.00 | 84 | 1011.9 |
| 20260901081507 | 75 | 174 | 3.5 | 0.0 | 0.00 | 0.00 | 0.00 | 82 | 1012.0 |
| 20260901080007 | 75 | 180 | 4.3 | 0.0 | 0.00 | 0.00 | 0.00 | 81 | 1011.8 |
| 20260901074604 | 75 | 173 | 3.5 | 0.0 | 0.00 | 0.00 | 0.00 | 79 | 1011.7 |
| 20260901071504 | 76 | 173 | 3.5 | 0.0 | 0.00 | 0.00 | 0.00 | 77 | 1011.7 |
| 20260901070009 | 76 | 167 | 3.5 | 0.0 | 0.00 | 0.00 | 0.00 | 75 | 1011.8 |
| 20260901061604 | 78 | 152 | 2.6 | 0.0 | 0.00 | 0.00 | 0.00 | 71 | 1011.5 |
| 20260901060004 | 78 | 155 | 2.6 | 0.0 | 0.00 | 0.00 | 0.00 | 69 | 1011.3 |
| 20260901054606 | 78 | 176 | 3.5 | 0.0 | 0.00 | 0.00 | 0.00 | 68 | 1011.2 |
| 20260901053132 | 78 | 155 | 1.7 | 0.0 | 0.00 | 0.00 | 0.00 | 69 | 1011.2 |
| 20260901051606 | 79 | 158 | 2.6 | 0.0 | 0.00 | 0.00 | 0.00 | 68 | 1011.1 |
| 20260901044501 | 80 | 150 | 3.5 | 0.0 | 0.00 | 0.00 | 0.00 | 67 | 1011.0 |
| 20260901043126 | 81 | 90 | 3.5 | 0.0 | 0.00 | 0.00 | 0.00 | 66 | 1011.0 |
| 20260901041616 | 81 | 132 | 3.5 | 0.0 | 0.00 | 0.00 | 0.00 | 65 | 1010.8 |
| 20260901040132 | 82 | 146 | 4.3 | 0.0 | 0.00 | 0.00 | 0.00 | 64 | 1010.8 |
| 20260901034607 | 82 | 146 | 4.3 | 0.0 | 0.00 | 0.00 | 0.00 | 62 | 1010.7 |